Theta_e
298 298 298 297 304 304 305 307 308 308 308 308 308 309 310 307 305 296 292 295 290 282 282 285 285 282 279 280 276 276 277 276 272 273 272 267 263 264 263 266 266 265 262 258 254 254 261 271 270 268 270 272 272 271
295 296 295 295 303 303 304 306 307 307 308 308 309 310 310 305 302 297 287 294 289 283 279 282 281 282 283 285 280 280 278 275 277 273 268 266 262 261 262 262 269 266 266 265 265 267 269 274 267 266 268 269 270 270
295 294 294 294 302 301 301 302 304 306 307 308 308 308 305 304 303 299 291 290 285 280 279 281 280 281 284 283 285 280 277 280 276 277 272 271 265 267 263 263 263 266 263 265 266 269 269 269 266 268 269 268 270 269
295 295 294 294 299 299 299 299 301 303 306 307 307 305 304 304 303 296 291 292 287 282 277 275 282 279 282 284 284 283 281 281 280 278 273 266 265 270 266 269 268 269 269 266 268 269 270 270 268 269 269 268 267 266
294 295 294 294 297 299 298 298 298 299 300 302 303 305 304 304 301 294 291 292 291 287 273 273 279 279 282 284 284 284 283 281 278 275 273 269 272 270 268 268 265 270 270 271 270 272 270 272 272 271 268 267 266 264
293 294 295 294 295 297 298 297 298 297 298 299 301 301 303 305 295 289 283 285 287 285 276 272 275 276 281 283 281 280 280 278 277 275 272 272 273 272 265 264 272 273 273 274 271 272 267 268 270 269 267 266 265 264
293 293 294 295 294 296 297 297 298 297 297 298 300 300 300 300 295 288 284 285 288 284 274 270 270 275 275 277 276 277 276 274 276 273 270 269 271 270 262 264 271 273 272 269 268 268 266 266 266 266 266 265 263 261
293 294 293 294 294 295 296 297 297 297 297 299 299 301 298 297 292 284 288 292 288 280 277 269 267 272 276 274 272 275 273 275 270 269 266 267 269 265 266 267 267 269 268 267 268 265 267 266 264 263 262 260 256 257
293 293 293 293 295 295 296 297 297 296 298 297 295 294 288 285 282 282 290 288 285 280 271 271 268 268 275 271 273 273 276 271 270 269 269 270 261 266 272 269 267 267 268 267 260 258 260 262 261 259 257 255 255 256
293 293 294 294 295 295 296 296 297 296 295 293 287 281 278 283 292 291 285 279 276 275 275 269 272 268 273 271 270 271 271 268 268 268 268 265 265 268 269 271 274 269 265 262 259 256 253 253 258 256 256 256 258 257
293 294 293 294 294 295 296 296 296 295 290 281 278 277 285 290 283 280 275 274 272 269 270 268 269 269 273 269 268 272 269 268 267 264 266 259 260 267 269 271 269 269 264 266 258 264 259 263 259 256 251 253 252 251
293 294 294 294 294 295 295 296 293 285 277 279 283 285 283 279 275 272 269 270 270 267 265 267 268 270 271 275 270 269 266 266 266 261 265 260 266 263 262 265 266 265 262 256 254 258 256 257 258 257 255 253 250 249
293 294 294 294 294 295 296 293 292 291 287 279 278 276 275 270 269 269 266 261 257 259 262 267 267 269 270 272 268 268 266 264 264 263 263 265 263 259 258 257 256 257 256 254 252 252 252 249 250 251 249 245 247 245
293 294 294 294 295 295 293 293 289 283 274 267 264 265 265 262 258 255 258 255 257 258 266 264 264 269 269 268 267 264 260 263 261 257 261 262 260 259 258 257 257 255 255 254 253 252 252 251 250 245 247 247 246 245
294 294 294 294 295 294 288 284 280 269 264 258 261 254 253 254 253 253 251 253 256 259 260 262 263 265 263 263 261 258 257 258 262 262 261 257 255 256 258 257 255 254 253 252 250 251 251 250 251 248 244 244 244 242
294 293 290 292 290 288 283 278 270 263 258 256 254 253 252 254 255 255 253 255 262 263 261 266 263 266 263 262 254 257 258 258 258 252 252 253 253 253 252 254 255 253 251 250 248 248 250 250 249 248 242 241 243 244
290 286 290 289 287 284 281 267 263 257 256 254 254 255 251 252 255 255 255 256 263 268 266 262 259 259 259 255 253 250 254 251 249 251 252 252 253 251 252 250 249 250 251 250 246 246 246 244 243 244 247 247 245 245
286 288 289 287 279 275 264 262 258 256 254 256 256 258 257 256 256 259 260 263 264 262 261 259 258 254 252 254 250 250 253 255 254 252 253 252 249 248 249 249 247 249 249 246 247 245 243 244 245 248 246 244 241 240
286 285 286 284 278 267 263 262 260 254 253 254 259 260 259 258 261 261 261 263 263 263 262 259 253 250 250 250 251 254 254 253 254 254 253 250 247 246 248 249 248 247 248 246 244 245 246 246 248 247 246 242 246 244
286 284 282 281 277 266 262 262 265 263 261 262 263 260 260 260 261 260 258 258 259 257 253 252 250 250 251 252 252 252 252 251 248 251 252 253 250 247 247 248 249 246 245 243 243 246 244 245 244 245 245 245 243 247
280 280 279 272 266 263 260 260 261 261 263 262 261 263 261 261 258 256 255 257 254 250 250 250 251 251 250 251 250 250 251 250 249 248 248 250 249 246 246 244 242 242 245 244 245 246 246 246 247 244 242 244 244 245
272 277 268 270 265 263 261 259 262 261 262 260 260 259 258 258 256 252 255 252 251 251 251 251 251 250 249 249 250 249 248 246 246 246 248 247 248 248 246 244 245 245 243 245 244 247 248 247 244 242 241 245 243 243
270 268 262 263 263 262 258 257 259 256 260 256 255 257 253 254 252 254 250 251 251 252 251 250 250 250 249 249 249 249 246 246 246 244 243 242 241 242 243 244 242 243 246 248 245 246 246 247 245 245 244 243 242 242
263 253 253 252 255 253 251 252 250 251 251 251 251 249 249 249 250 250 247 246 250 251 250 249 248 249 249 249 246 244 244 242 242 244 242 240 244 245 241 244 243 244 247 246 244 245 245 245 245 242 242 240 239 239
260 249 249 250 247 252 250 249 249 252 246 242 248 248 248 244 245 243 244 246 248 248 249 249 247 246 244 245 244 245 245 243 245 247 248 241 241 242 244 242 244 246 242 242 242 241 241 240 240 240 241 240 243 245
247 243 245 240 246 249 244 246 245 244 243 244 244 245 242 245 244 243 245 247 246 248 249 247 246 245 245 246 245 247 248 242 243 242 246 243 243 244 245 245 244 247 242 243 243 243 245 245 244 245 246 246 247 247
246 243 242 241 243 243 244 242 243 244 242 242 241 244 244 242 241 245 248 250 248 249 250 250 249 249 248 250 249 247 246 243 245 247 248 248 248 248 249 247 246 248 244 245 246 246 247 248 249 249 249 250 249 247
240 239 244 241 241 239 238 239 240 239 239 241 240 241 241 243 245 248 250 252 250 250 251 252 250 249 248 248 248 247 247 243 245 247 243 244 244 246 245 248 249 254 252 250 250 250 250 249 249 249 249 249 249 248
242 239 241 241 240 241 240 240 240 241 242 239 241 241 245 246 248 248 251 251 248 246 246 249 249 243 246 247 246 246 245 241 243 243 242 244 244 248 244 244 247 247 248 249 252 255 254 253 252 251 251 251 251 251
242 239 241 239 242 242 243 241 242 242 242 242 242 247 249 249 249 245 246 246 246 246 244 241 243 239 244 243 247 248 245 241 243 245 244 245 246 248 250 250 250 249 248 248 250 250 253 252 251 249 249 248 248 248
241 239 243 243 246 245 244 244 243 242 241 246 246 247 246 247 247 243 243 242 240 238 241 246 244 244 241 248 245 248 248 245 242 245 247 249 250 250 250 250 251 251 250 250 250 250 250 250 250 249 249 248 248 249
242 239 244 245 245 246 244 245 245 247 247 249 247 248 246 244 244 246 243 240 242 243 249 243 245 250 251 251 249 248 250 251 250 250 249 250 250 251 252 252 253 253 252 252 252 252 252 251 250 250 250 250 250 250
243 242 242 244 245 246 247 246 248 247 247 245 244 240 239 242 246 249 244 241 244 245 248 249 251 251 252 252 252 251 251 250 248 254 254 254 253 254 254 253 253 253 253 252 252 252 252 251 251 251 251 251 250 250
Wind_Speed
9 16 13 16 25 20 17 19 24 26 25 24 27 31 39 46 41 16 6 5 5 4 3 3 6 13 7 9 12 11 8 3 3 4 5 5 4 8 5 3 8 10 10 6 4 4 12 10 5 10 6 3 8 6
7 6 10 24 24 18 16 17 21 20 24 22 29 30 40 49 41 18 7 4 4 8 4 2 4 5 5 3 10 18 3 13 8 6 1 5 3 2 5 5 4 5 9 10 13 11 2 17 4 2 5 7 7 8
10 5 5 18 27 24 21 16 13 16 20 19 26 32 43 47 39 16 10 8 7 6 3 3 4 3 5 5 2 10 2 6 3 3 6 3 5 6 7 7 3 5 4 4 4 4 6 5 2 4 5 5 8 6
8 9 2 10 13 18 18 18 18 17 13 23 20 37 44 41 34 16 10 9 7 6 5 2 1 5 1 3 3 1 8 6 6 2 3 4 5 3 4 4 4 4 10 8 4 2 3 4 7 10 9 8 8 7
6 9 7 6 7 19 19 17 14 17 17 16 12 39 37 36 28 14 7 5 4 6 6 3 4 4 3 7 10 8 10 6 3 3 3 3 3 5 1 3 3 8 9 9 10 12 6 6 16 16 14 13 12 10
5 7 10 5 6 10 19 17 18 13 11 15 13 16 20 37 34 9 4 2 4 4 8 4 3 4 2 11 13 11 5 4 3 4 2 1 1 3 5 5 6 10 7 4 6 10 5 6 12 11 11 12 10 9
7 4 9 9 1 3 16 17 18 17 15 12 16 12 11 35 17 9 7 9 16 5 7 5 3 2 3 4 4 4 5 3 2 3 2 3 0 3 3 6 6 9 7 5 10 13 4 4 8 9 9 9 7 5
10 9 4 7 9 8 12 18 17 17 16 17 22 25 33 25 17 7 5 25 13 8 5 6 2 2 2 3 4 1 3 2 4 2 1 3 1 1 6 5 2 7 10 7 10 4 3 11 12 9 7 8 6 6
8 9 5 6 12 14 14 18 19 18 21 36 30 25 9 5 4 5 18 15 6 6 6 4 7 6 3 3 3 2 1 3 1 2 1 2 1 9 9 8 9 12 15 15 9 7 6 10 13 11 8 7 7 9
10 12 12 8 13 17 17 23 28 29 30 23 8 6 4 2 31 15 3 4 5 4 3 4 2 5 4 2 2 4 2 3 3 1 3 2 8 5 5 7 12 14 13 20 10 3 3 4 12 12 12 9 10 9
11 14 12 11 14 19 17 22 29 23 10 5 4 3 7 9 4 3 4 4 2 4 2 3 2 7 0 5 4 1 3 2 4 3 4 3 9 6 9 11 8 14 16 15 3 4 6 9 15 12 6 8 7 8
12 14 15 15 15 20 21 22 20 6 1 7 10 6 3 4 4 6 3 2 2 5 2 4 4 4 3 3 5 1 4 1 4 4 2 5 7 1 2 3 7 11 14 9 3 9 8 8 9 9 8 9 7 6
12 12 15 17 17 21 23 17 23 24 8 5 8 5 4 3 5 4 6 1 2 3 4 5 6 4 3 4 5 3 4 2 4 2 6 8 2 1 2 4 7 6 10 10 8 7 8 8 7 6 7 3 7 5
11 13 16 19 20 25 23 27 11 7 8 7 5 5 2 3 4 2 1 4 2 3 8 5 5 4 2 5 3 5 1 3 3 2 10 3 3 1 1 3 10 9 8 9 9 7 8 7 6 4 5 5 7 5
15 17 17 18 27 28 19 19 17 8 7 6 6 4 5 2 1 1 1 3 2 1 2 4 5 5 3 6 4 6 2 5 8 7 3 2 4 2 4 5 9 7 6 6 5 6 6 7 6 5 4 5 5 3
20 20 19 28 28 24 17 14 10 6 7 7 9 4 1 4 3 3 2 1 2 1 1 3 5 5 3 6 5 8 9 8 4 3 3 5 5 3 3 5 6 5 6 6 4 3 4 6 5 3 3 3 4 5
13 4 30 28 26 25 23 9 6 10 7 7 4 2 2 2 2 2 1 2 3 2 3 3 6 4 4 4 0 1 5 3 3 3 2 3 2 2 5 5 3 5 6 6 4 3 3 4 5 4 2 3 4 6
11 17 25 19 11 9 5 7 7 7 8 3 4 3 2 1 1 2 2 2 2 2 3 2 5 5 3 5 2 2 1 1 1 2 4 4 3 2 1 4 3 5 5 3 2 3 4 4 3 4 3 2 2 4
13 13 18 17 10 8 6 7 6 6 1 2 0 1 2 2 4 4 3 5 5 4 4 4 8 4 2 1 2 2 2 3 3 3 2 2 2 2 4 4 4 3 3 3 3 2 2 4 4 2 2 2 3 3
23 22 18 22 11 6 7 4 2 6 2 2 2 3 2 3 1 3 7 6 5 5 9 7 3 2 2 2 2 2 2 3 2 2 2 2 2 3 3 2 1 1 1 2 2 1 2 3 1 2 3 4 3 6
12 8 14 8 6 9 6 3 5 3 3 4 1 2 3 2 4 5 5 5 7 7 4 3 1 1 2 1 1 1 2 2 2 1 1 2 2 2 3 2 2 3 1 1 1 3 1 3 3 2 3 4 5 5
2 9 4 6 6 5 6 4 3 1 3 3 3 3 4 3 4 5 3 9 6 3 3 3 3 2 3 2 2 1 1 2 2 2 1 2 3 4 3 1 2 2 2 3 2 4 4 3 2 2 3 5 3 4
7 7 7 7 8 7 1 2 4 6 4 2 1 4 4 3 2 1 7 4 3 2 2 2 4 1 2 2 1 2 1 3 3 3 3 3 3 3 3 3 2 2 4 4 3 2 3 3 3 4 3 3 2 3
13 11 9 6 6 2 2 6 3 4 4 5 4 4 3 2 3 6 5 2 1 2 4 5 5 3 2 3 2 3 3 1 2 3 2 1 3 3 2 4 3 4 5 3 2 3 3 5 4 3 2 2 3 3
11 11 7 8 5 6 7 6 6 6 4 3 4 4 3 3 5 6 3 3 3 3 3 4 2 1 1 3 3 3 3 2 2 5 4 3 1 3 3 3 4 5 3 2 3 3 3 2 3 3 4 3 6 7
11 6 6 2 5 5 1 4 4 2 2 5 3 3 3 5 7 3 1 2 2 2 3 2 2 3 3 3 3 4 4 1 2 1 5 4 4 3 3 4 4 5 3 3 3 3 5 4 5 6 5 6 7 7
8 5 4 2 1 2 4 3 2 5 6 5 3 4 5 8 3 3 1 1 1 2 2 2 2 3 4 6 5 4 4 2 5 6 5 5 6 6 6 5 6 5 3 5 5 5 6 7 7 7 7 7 6 6
3 3 6 6 6 3 5 5 6 4 2 2 2 7 6 3 1 2 2 1 2 2 3 3 2 3 3 5 5 5 6 3 6 7 3 3 4 4 5 5 7 13 7 5 6 6 6 7 7 8 9 10 9 6
5 3 3 7 5 7 6 3 1 2 1 2 4 3 3 2 2 1 1 1 2 2 3 4 5 3 4 4 4 4 4 1 3 5 3 4 3 4 2 3 5 5 5 5 9 10 10 9 9 9 11 9 9 7
4 2 6 4 7 6 3 1 2 2 1 2 1 2 3 2 2 1 0 1 1 3 3 3 5 1 4 4 7 7 3 3 4 4 2 5 5 6 7 7 7 5 4 5 7 8 10 9 8 6 6 6 6 7
1 3 6 5 4 2 3 2 2 1 0 3 2 5 1 2 4 2 2 2 1 1 3 4 4 4 2 6 4 8 8 2 4 7 7 7 8 9 8 8 7 7 7 8 8 8 9 8 8 9 10 11 12 11
4 5 5 5 0 2 1 2 1 3 3 3 3 2 3 4 2 4 3 3 3 4 5 2 5 10 7 6 5 5 10 9 7 7 9 8 8 9 9 8 8 8 8 9 9 10 11 12 11 11 12 15 14 13
4 4 4 4 3 2 2 3 4 2 3 3 3 1 1 3 2 5 2 2 3 3 5 6 8 8 11 10 9 8 8 6 9 13 16 15 15 14 10 8 7 8 10 10 10 11 13 14 13 14 14 14 14 13
Wind_Direction
244 208 228 297 212 200 193 204 201 201 194 206 222 219 200 188 175 161 146 202 128 89 103 159 146 154 138 170 157 160 114 244 100 160 152 181 152 200 114 156 176 159 148 178 93 85 273 156 68 162 186 80 144 148
275 186 249 301 191 164 153 170 180 193 197 205 221 223 192 171 164 143 129 102 91 78 110 43 77 47 64 167 135 178 135 151 164 123 178 112 132 140 147 205 144 205 181 177 183 205 246 181 152 150 128 140 172 164
175 115 323 291 142 132 115 112 137 190 191 195 195 171 166 168 168 159 132 144 75 99 53 126 121 56 78 36 342 161 271 154 168 165 152 145 153 138 163 226 127 245 169 149 109 199 211 196 79 144 161 144 150 139
169 131 276 292 156 136 126 105 95 98 156 180 178 172 171 173 166 137 150 150 92 96 118 145 102 85 85 93 73 218 134 95 101 72 108 132 136 177 192 157 164 173 138 157 265 200 39 266 205 168 152 134 135 136
159 147 133 309 229 150 145 132 103 95 92 106 100 179 176 173 142 101 74 169 84 124 123 122 112 3 141 123 96 82 97 99 123 99 101 156 124 117 328 72 237 192 163 176 214 182 163 197 184 164 154 169 164 156
160 159 149 150 299 156 139 137 132 126 116 120 118 121 154 164 123 107 80 333 100 112 109 118 347 6 92 101 93 77 57 51 59 95 111 143 281 122 152 200 239 186 184 170 187 128 66 66 139 149 157 163 159 163
129 150 161 145 123 142 133 137 133 134 127 127 147 155 182 147 152 160 170 150 127 114 93 105 77 22 343 82 61 76 52 54 51 105 88 131 181 99 143 205 231 185 140 115 124 116 66 209 179 153 133 139 130 112
148 112 138 139 149 176 168 146 138 129 131 134 118 123 127 115 88 54 84 125 109 86 80 112 105 117 275 88 90 342 96 77 23 116 30 114 42 44 254 216 159 139 121 131 172 30 136 118 121 126 119 130 132 170
152 143 120 176 156 156 158 139 127 129 127 109 107 99 78 51 99 102 105 79 59 91 116 124 137 160 126 90 115 80 94 94 290 109 137 102 219 223 220 176 179 181 176 166 100 72 95 135 152 149 138 153 163 195
168 166 157 153 153 148 156 138 116 113 111 101 60 54 56 28 122 125 70 55 40 35 58 88 112 126 130 145 99 104 26 136 149 149 91 151 254 254 215 214 201 164 139 138 114 139 127 146 173 176 188 173 199 182
162 164 152 146 160 155 164 146 132 122 73 46 64 78 116 94 69 56 92 93 153 74 49 104 122 125 250 112 119 6 140 161 153 208 164 249 268 236 189 197 178 164 159 171 59 119 128 150 172 166 175 196 192 157
158 165 164 140 157 159 153 145 117 71 128 140 110 90 64 61 60 87 71 103 65 155 144 127 135 108 122 131 108 117 99 177 169 147 139 257 247 328 17 97 125 148 140 118 84 134 126 143 148 148 159 187 186 152
160 157 154 140 156 154 138 123 113 122 109 46 56 57 44 2 78 133 150 194 99 178 194 163 118 123 126 77 78 108 125 136 147 119 223 236 304 338 169 103 89 88 101 105 96 84 99 96 89 124 151 192 141 149
148 145 146 143 151 117 127 110 73 66 59 66 94 75 52 34 64 151 146 164 247 112 145 111 83 101 102 79 113 105 112 172 140 199 233 252 336 106 104 104 115 124 119 119 117 118 109 131 154 125 125 143 134 177
135 135 144 144 132 118 98 77 62 51 60 63 41 74 50 268 306 299 290 353 300 235 108 92 72 87 69 100 68 108 85 214 212 225 231 346 313 121 119 95 105 117 123 116 114 119 150 161 149 150 184 160 155 170
121 93 98 102 102 88 71 55 38 67 55 62 42 53 318 77 351 20 348 29 310 263 346 54 102 84 92 120 103 203 147 215 243 280 308 330 338 29 85 83 94 113 112 115 114 151 150 150 166 171 97 170 184 195
75 76 105 96 86 64 46 70 50 47 79 49 35 48 120 117 158 252 225 292 293 347 46 84 82 177 97 73 142 211 195 248 269 316 328 332 4 80 74 73 107 120 114 117 134 130 125 94 99 80 252 254 205 217
98 112 108 101 89 67 39 47 78 70 61 15 64 351 38 45 325 5 357 336 15 70 55 101 118 72 120 139 248 264 285 202 120 48 28 8 13 37 110 137 107 102 116 126 99 123 117 124 159 228 223 230 269 262
96 72 65 66 79 86 71 24 65 90 126 182 91 56 88 98 54 28 4 19 58 34 78 43 58 52 62 55 0 4 5 16 357 14 7 351 335 45 73 73 81 84 118 141 164 196 199 198 210 206 215 155 235 243
78 52 58 53 55 73 64 25 41 91 102 130 84 44 76 61 61 46 34 25 35 47 46 41 49 24 354 18 357 334 341 342 321 358 339 344 14 23 46 70 70 69 73 13 355 320 342 320 272 219 213 219 212 253
38 5 37 59 52 63 78 12 58 82 124 79 64 25 73 56 40 25 26 357 60 34 61 32 18 293 279 256 357 313 319 6 7 257 257 330 340 5 344 352 38 41 43 340 279 297 234 232 254 229 215 238 229 243
24 21 56 23 78 66 79 13 65 61 70 93 84 38 41 49 35 25 342 46 58 32 13 339 329 322 340 25 336 356 317 290 247 268 284 324 357 355 350 318 9 299 267 244 213 249 254 244 247 236 217 253 230 246
31 37 43 23 76 44 20 3 75 5 85 68 53 62 36 46 33 294 71 56 88 40 324 311 315 285 261 321 345 9 18 23 357 338 312 287 264 262 273 278 202 221 280 272 209 218 245 258 250 254 248 260 259 278
34 46 38 42 36 104 357 28 32 59 50 37 57 67 23 360 337 55 74 49 353 315 4 356 358 1 6 358 6 307 300 161 291 293 250 230 297 290 244 271 259 237 231 273 266 256 260 261 262 260 253 258 266 259
69 359 29 9 1 50 40 22 5 49 66 357 79 28 358 4 69 57 68 318 347 342 343 340 351 30 216 275 288 291 299 169 279 306 295 185 247 324 301 281 273 252 173 152 268 243 267 254 246 243 250 241 267 278
69 323 50 322 349 65 339 69 39 56 89 58 33 276 28 70 60 38 308 279 281 288 310 321 308 329 309 217 276 304 297 193 99 272 283 193 194 196 270 298 313 299 199 190 170 238 265 259 255 265 268 260 253 262
63 350 334 14 113 91 55 35 66 69 56 40 331 17 54 64 41 269 292 246 239 266 265 267 237 242 264 299 290 265 269 206 209 239 264 260 240 223 229 231 241 242 186 212 228 229 261 281 284 281 280 277 255 241
124 20 65 330 47 21 88 46 37 38 322 303 49 37 90 106 210 237 214 267 234 297 299 295 265 241 268 286 288 295 297 293 293 277 281 271 242 233 214 230 247 265 265 246 251 251 250 256 263 268 267 270 275 244
45 335 73 41 45 47 50 61 356 261 219 103 103 102 138 229 218 201 296 326 338 5 340 334 325 352 302 280 275 267 262 239 26 9 348 290 320 302 207 231 251 250 246 253 268 275 269 261 257 253 255 260 266 265
337 24 84 59 57 35 309 180 305 269 211 199 222 88 76 10 251 29 306 344 354 297 273 257 279 333 292 318 312 317 264 193 186 173 239 280 265 277 292 293 288 277 258 256 272 276 279 289 289 285 278 278 274 273
329 42 71 52 85 259 236 269 271 217 191 37 21 79 139 309 310 256 202 203 200 351 345 324 312 286 273 316 309 320 317 283 216 239 245 267 278 279 280 280 278 277 275 273 273 273 274 275 271 274 274 272 272 268
30 49 109 98 131 287 354 51 42 67 19 47 18 24 16 40 17 289 236 117 42 0 326 273 322 324 316 294 262 236 244 275 283 280 281 282 283 280 280 279 276 271 268 268 269 270 271 270 273 273 275 276 277 275
49 48 62 92 63 31 339 60 39 63 44 43 357 234 215 161 158 264 287 183 169 241 305 301 298 304 301 297 288 289 287 270 277 288 296 293 291 290 291 287 284 278 276 273 273 272 272 273 272 273 274 275 276 277